Simultaneous Nadir Overpasses (SNOs) Predictions

Prediction of SNOs between NOAA-20 and AQUA Satellite Orbit:

Table of predicted SNOs for the next 14.0 days since TLE Epoch: 6/14/2024
Index Date (NOAA-20) Time (NOAA-20) Lat,Lon (NOAA-20) SZA (NOAA-20 ) Date (AQUA) Time (AQUA) Lat,Lon (AQUA) SZA (AQUA ) Distance(km) Time Diff (sec)
1 06/15/2024 13:29:58 -81.28, 81.86 115.21 06/15/2024 13:30:03 -81.28, 81.78 115.20 1.31 5
2 06/18/2024 01:33:02 81.27, 80.85 64.78 06/18/2024 01:33:42 81.27, 80.83 64.76 0.50 40
3 06/18/2024 02:23:46 -81.28,-111.55 115.27 06/18/2024 02:23:04 -81.28,-111.43 115.26 2.05 42
4 06/20/2024 13:36:36 -80.87, 68.51 113.48 06/20/2024 13:37:50 -80.56, 69.42 113.67 38.27 74
5 06/20/2024 14:26:50 81.27,-112.62 64.78 06/20/2024 14:26:42 81.27,-112.46 64.76 2.71 8
6 06/23/2024 02:29:52 -81.28,-113.04 115.24 06/23/2024 02:30:19 -81.28,-113.20 115.23 2.78 27
7 06/23/2024 03:20:36 81.29, 54.63 64.71 06/23/2024 03:19:40 81.28, 54.60 64.75 0.63 56
8 06/25/2024 14:32:55 81.28,-113.84 64.85 06/25/2024 14:33:54 81.28,-113.98 64.83 2.26 59
9 06/25/2024 15:23:39 -81.28, 53.79 115.20 06/25/2024 15:23:16 -81.29, 53.86 115.19 1.43 23
10 06/28/2024 03:26:41 81.28, 52.91 64.94 06/28/2024 03:26:49 81.29, 53.02 64.92 1.94 8



Historial Predications of SNOs between NOAA-20 and AQUA
